STARLINK-5213, 54093

Orbit data source: Space-Track

STARLINK-5213, 54093 is a payload satellite owned by SpaceX/Seattle (US) in LEO that was launched on Thu, 20 Oct 2022 UTC via an FALCON 9 launch vehicle from the Air Force Eastern Test Range (AFETR). Payload-class satellites include a variety of spacecraft equipped with specific instruments for various scientific and technological missions. These include communications satellites like Starlink; space stations such as the ISS; scientific satellites like the Hubble; Earth observation satellites from companies like Planet Labs, Umbra, and HawkEye 360; GPS; miniature CubeSats for education and research; and military/defense satellites.

Loading next visibility...
Identifier
54093, 2022-136AU
Orbit
LEO
Country
Flag of USUS
Related business
Manufacturer
SpaceX/Seattle
Mission
Operational Commercial Communications
Bus & Motor
STARLINK, Unknown motor
Mass
305 kg wet, ~290 kg dry
Launch date (UTC)
2022-10-20 (3 years ago)
Launch vehicle
FALCON 9
Launch site
Air Force Eastern Test Range (AFETR)
Object type
Payload
Rocket body
Debris
Shape & HBR
Box + 1 Pan, 10.1 m
Radar Cross Section
13.562 m², Large (>1 m²)

Expand to show TLE details & history
Last TLE update: 15 hours ago

TLE from 15 hours ago
0 STARLINK-5213
1 54093U 22136AU  25303.96553718  .00000005  00000-0  18380-4 0  9991
2 54093  53.2172 196.2273 0001583  87.7640 272.3534 15.08841705167405
Epoch: 2025-10-30T23:10Z
TLE epoch observation values (Epoch: 2025-10-30T23:10:22.412Z)
Latitude
0.00003°
Longitude
169.11719°
Altitude
540.591 km
Speed
7.593 km/s
True Right ascension
13h 04m 54s
True Declination
0° 00' 00"
Sunlit
Object was in daylight at epoch
Visualization orbit readout
Latitude
Unknown
Longitude
Unknown
Altitude
Unknown
Speed
Unknown
Apparent Right ascension
Unknown
Apparent Declination
Unknown
Sunlit
N/A
Visualization observer readout
Local Sidereal Time
10:04:27
Azimuth
Unknown
Elevation
Unknown
Doppler factor
Unknown
Orbital elements
Apogee altitude
541.078 km
Perigee altitude
538.888 km
Semi-major axis
6,918.12 km
Eccentricity
0.00016
Inclination
53.2172°
RAAN
196.2273°
Arg. of periapsis
87.764°
True anomaly
272.33528°
Mean anomaly
272.3534°
Eccentric anomaly
272.34434°
Mean motion
3.77191 °/min
Orbital period
95.44 mins
BSTAR
0.00001838
Loading maneuver chart data...
Computing Atmospheric mass density...
Loading historical data...
Loading historical data...
Loading historical data...
Loading historical data...
Loading historical data...
Loading historical data...
Loading historical data...

Documentation

Showing up to 5 results
|